[[{"header":{"parameterUnit":"m.s-1","parameterCategory":1,"la1":30.2991,"la2":30.254,"lo1":-89.0895,"lo2":-89.0444,"dy":0.0017,"dx":0.0017,"nx":28,"ny":28,"refTime":"2025-06-05T03:00:00:Z","depth":0,"parameterNumber":2,"parameterNumberName":"U-component_of_WINDS"},"data":[0,0,0,0,0,0,0,0,0,0,0,0,0,0,0,0,0,0,0,0,0,0,0,0,0,0,0,0,0,0,0,0,0,0,0,0,0,0,0,0,0,0,0,0,0,0,0,0,0,0,0,0,0,0,0,0,0,0,-2.5687,-2.5688,0,-2.5792,-2.5793,-2.5794,-2.5805,-2.5804,-2.5803,-2.5802,-2.5905,-2.5909,-2.5913,0,0,0,0,0,0,0,0,0,0,0,0,0,-2.5493,-2.5496,-2.5687,-2.5688,-2.569,-2.5792,-2.5793,-2.5795,-2.5805,-2.5804,-2.5802,-2.5801,-2.5904,-2.5909,-2.5913,0,0,0,0,0,0,0,0,0,0,0,0,0,-2.5585,-2.5498,-2.5687,-2.5707,-2.571,-2.5792,-2.5793,-2.5795,-2.5805,-2.5804,-2.5802,-2.5801,-2.5903,-2.5908,-2.5914,-2.5981,0,0,-2.5931,-2.5933,0,0,0,0,0,0,0,0,-2.558,-2.5593,-2.5703,-2.5706,-2.5709,-2.5784,-2.5763,-2.5857,-2.5806,-2.5769,-2.5802,-2.58,-2.5866,-2.5875,-2.5898,-2.5986,-2.599,-2.5931,-2.5935,-2.5937,-2.5939,0,0,0,0,0,0,0,-2.5574,-2.5588,-2.5729,-2.5705,-2.5709,-2.571,-2.5722,-2.5781,-2.5825,-2.5772,-2.5773,-2.5786,-2.5867,-2.5892,-2.59,-2.5992,-2.5931,-2.5936,-2.594,-2.5942,-2.614,-2.6141,0,0,0,0,0,0,-2.5564,-2.5583,-2.5725,-2.5732,-2.564,-2.5715,-2.5728,-2.5762,-2.5825,-2.5833,-2.5787,-2.5786,-2.5883,-2.5894,-2.5904,-2.5986,-2.5937,-2.5943,-2.5946,-2.6138,-2.614,-2.6142,0,0,0,0,0,0,-2.556,-2.5577,-2.5721,-2.5658,-2.5676,-2.572,-2.5758,-2.5764,-2.5789,-2.5836,-2.5843,-2.5804,-2.5882,-2.5896,-2.5962,-2.5989,-2.5945,-2.595,-2.6136,-2.6139,-2.6141,-2.615,0,0,0,0,0,0,-2.5554,-2.5575,-2.5601,-2.5658,-2.5679,-2.5778,-2.576,-2.5768,-2.5799,-2.5799,-2.5854,-2.5862,-2.5882,-2.5953,-2.5967,-2.5996,-2.5955,-2.6133,-2.6137,-2.614,-2.6147,-2.6153,-2.6158,0,0,0,0,0,-2.5547,-2.5599,-2.5603,-2.562,-2.5714,-2.578,-2.5792,-2.5815,-2.5802,-2.5828,-2.5858,-2.586,-2.5985,-2.596,-2.5976,-2.6007,-2.6132,-2.6136,-2.614,-2.6145,-2.6152,-2.6157,0,0,0,0,0,0,-2.5543,-2.5607,-2.5611,-2.5684,-2.5726,-2.5781,-2.5815,-2.5822,-2.5868,-2.5865,-2.5892,-2.5904,-2.5969,-2.5995,-2.5966,-2.6075,-2.6057,-2.6064,-2.6055,-2.6062,-2.6067,-2.6058,-2.5959,0,0,0,0,0,-2.5551,-2.56,-2.5653,-2.5711,-2.5733,-2.577,-2.58,-2.5815,-2.5859,-2.5877,-2.5912,-2.5954,-2.6003,-2.6034,-2.6082,-2.6153,-2.6164,-2.6182,-2.6187,-2.6191,-2.6196,-2.6234,-2.6242,-2.6156,-2.6156,-2.6156,0,0,-2.5566,-2.5607,-2.5636,-2.5711,-2.5746,-2.5795,-2.5785,-2.5838,-2.5874,-2.5885,-2.5949,-2.5976,-2.6025,-2.6094,-2.6125,-2.6117,-2.6223,-2.6196,-2.6199,-2.6202,-2.6239,-2.6248,-2.6255,-2.6159,-2.6158,-2.6158,0,0,-2.5619,-2.5657,-2.5709,-2.5744,-2.5798,-2.5823,-2.5836,-2.589,-2.5909,-2.5975,-2.5983,-2.6027,-2.6111,-2.6145,-2.6174,-2.6242,-2.6245,-2.6257,-2.6282,-2.6319,-2.6326,-2.6332,-2.6355,-2.6363,-2.6263,-2.6263,-2.6263,0,-2.5631,-2.5707,-2.5734,-2.5787,-2.5819,-2.5833,-2.5886,-2.5919,-2.5984,-2.6006,-2.5997,-2.6102,-2.6136,-2.6212,-2.6229,-2.6253,-2.6267,-2.6249,-2.6323,-2.6329,-2.6335,-2.6357,-2.6366,-2.6264,-2.6264,-2.6264,-2.6264,0,-2.5719,-2.5771,-2.5807,-2.5871,-2.5908,-2.596,-2.5994,-2.6028,-2.6041,-2.6067,-2.6133,-2.6175,-2.6231,-2.6251,-2.6263,-2.6329,-2.6322,-2.6318,-2.6299,-2.6344,-2.6365,-2.6374,-2.6265,-2.6265,-2.6265,-2.6264,0,0,-2.5769,-2.585,-2.5862,-2.5891,-2.5952,-2.5993,-2.6046,-2.6102,-2.613,-2.6176,-2.6219,-2.6291,-2.6288,-2.632,-2.6337,-2.637,-2.642,-2.6362,-2.6363,-2.6369,-2.6493,-2.6494,-2.6503,-2.6423,-2.6425,-2.6427,-2.6488,0,-2.5828,-2.5923,-2.595,-2.603,-2.6078,-2.6093,-2.6139,-2.6181,-2.6207,-2.6251,-2.628,-2.633,-2.6323,-2.6342,-2.6376,-2.6406,-2.6444,-2.6403,-2.6462,-2.6464,-2.6447,-2.6515,-2.6516,-2.6572,-2.6497,-2.6498,-2.65,0,-2.5908,-2.5956,-2.6041,-2.6096,-2.6118,-2.6158,-2.6212,-2.6255,-2.6303,-2.6319,-2.6357,-2.6371,-2.6426,-2.6407,-2.6482,-2.6453,-2.648,-2.6499,-2.6501,-2.6505,-2.6482,-2.6518,-2.6591,-2.6598,-2.6513,-2.6512,-2.6511,0,-2.5933,-2.602,-2.6082,-2.6107,-2.6173,-2.6202,-2.623,-2.6277,-2.6309,-2.6357,-2.6378,-2.643,-2.6458,-2.6499,-2.6526,-2.651,-2.6599,-2.6582,-2.6613,-2.6612,-2.6628,-2.6626,-2.6703,-2.6649,-2.6649,-2.6649,-2.6649,0,-2.5994,-2.6045,-2.6094,-2.6132,-2.619,-2.6221,-2.6276,-2.6306,-2.6347,-2.639,-2.6408,-2.6447,-2.6483,-2.6527,-2.6549,-2.6608,-2.6621,-2.6635,-2.6639,-2.6632,-2.663,-2.6647,-2.6643,-2.6651,-2.6651,-2.6651,-2.665,0,-2.6031,-2.6067,-2.6135,-2.6193,-2.6209,-2.6248,-2.6298,-2.6335,-2.6363,-2.6417,-2.6431,-2.6475,-2.6528,-2.6561,-2.6628,-2.6643,-2.6706,-2.6711,-2.669,-2.6692,-2.672,-2.6716,-2.6809,-2.6822,-2.6761,-2.6762,-2.6763,0,-2.6066,-2.6106,-2.6169,-2.62,-2.6229,-2.6278,-2.6312,-2.6344,-2.6378,-2.6437,-2.6466,-2.6521,-2.6566,-2.6651,-2.6688,-2.6739,-2.6744,-2.6773,-2.6751,-2.6742,-2.6742,-2.6738,-2.6741,-2.6775,-2.6776,-2.6776,-2.6777,0,-2.6124,-2.614,-2.6188,-2.6243,-2.6283,-2.6327,-2.6371,-2.6395,-2.6435,-2.6472,-2.6528,-2.6563,-2.6633,-2.6686,-2.6742,-2.677,-2.678,-2.6784,-2.6793,-2.6784,-2.677,-2.6776,-2.6697,-2.6781,-2.678,-2.678,-2.678,-2.6779,-2.616,-2.6195,-2.6246,-2.6299,-2.6336,-2.6377,-2.6414,-2.6448,-2.6495,-2.6555,-2.6571,-2.6629,-2.6677,-2.6752,-2.6782,-2.6827,-2.6823,-2.6837,-2.684,-2.6842,-2.6842,-2.6765,-2.6838,-2.6838,-2.6838,-2.6838,-2.6838,0,-2.6216,-2.625,-2.6299,-2.6361,-2.6402,-2.641,-2.646,-2.6493,-2.6544,-2.6589,-2.6634,-2.6697,-2.675,-2.6792,-2.6846,-2.6874,-2.688,-2.6887,-2.6884,-2.689,-2.6844,-2.6829,-2.6881,-2.6881,-2.6881,-2.6881,-2.6881,-2.6881,-2.6251,-2.6312,-2.6334,-2.6413,-2.6446,-2.6504,-2.6531,-2.6569,-2.6604,-2.6675,-2.6719,-2.6747,-2.679,-2.6848,-2.6896,-2.6907,-2.6925,-2.6932,-2.6943,-2.6898,-2.6893,-2.6888,-2.6875,-2.6936,-2.6936,-2.6985,-2.6985,-2.6986]},{"header":{"parameterUnit":"m.s-1","parameterCategory":1,"la1":30.2991,"la2":30.254,"lo1":-89.0895,"lo2":-89.0444,"dy":0.0017,"dx":0.0017,"nx":28,"ny":28,"refTime":"2025-06-05T03:00:00:Z","depth":0,"parameterNumber":3,"parameterNumberName":"V-component_of_WINDS"},"data":[0,0,0,0,0,0,0,0,0,0,0,0,0,0,0,0,0,0,0,0,0,0,0,0,0,0,0,0,0,0,0,0,0,0,0,0,0,0,0,0,0,0,0,0,0,0,0,0,0,0,0,0,0,0,0,0,0,0,0.3768,0.3768,0,0.3714,0.3713,0.3712,0.3694,0.3695,0.3695,0.3695,0.3635,0.3634,0.3632,0,0,0,0,0,0,0,0,0,0,0,0,0,0.3854,0.3853,0.3768,0.3767,0.3767,0.3714,0.3713,0.3712,0.3694,0.3695,0.3695,0.3695,0.3636,0.3634,0.3632,0,0,0,0,0,0,0,0,0,0,0,0,0,0.381,0.3853,0.3768,0.3752,0.375,0.3714,0.3713,0.3712,0.3694,0.3695,0.3695,0.3695,0.3637,0.3634,0.3631,0.3607,0,0,0.3623,0.3622,0,0,0,0,0,0,0,0,0.3813,0.3807,0.3755,0.3753,0.375,0.3711,0.3721,0.3677,0.3694,0.3715,0.3695,0.3696,0.366,0.3655,0.3644,0.3604,0.3602,0.3623,0.3621,0.362,0.3619,0,0,0,0,0,0,0,0.3816,0.3809,0.3746,0.3754,0.3751,0.3746,0.374,0.3713,0.3686,0.3713,0.3712,0.3706,0.3659,0.3647,0.3643,0.3601,0.3623,0.362,0.3619,0.3618,0.3539,0.3539,0,0,0,0,0,0,0.3822,0.3812,0.3748,0.3745,0.3783,0.3744,0.3738,0.3723,0.3686,0.3681,0.3706,0.3705,0.3651,0.3646,0.3641,0.361,0.362,0.3617,0.3616,0.3539,0.3539,0.3538,0,0,0,0,0,0,0.3824,0.3817,0.375,0.3778,0.3769,0.3742,0.3726,0.3722,0.371,0.3681,0.3675,0.3699,0.3652,0.3644,0.3616,0.3608,0.3616,0.3614,0.354,0.3539,0.3539,0.3549,0,0,0,0,0,0,0.3827,0.3817,0.3808,0.3778,0.3768,0.3727,0.3726,0.3721,0.3706,0.3705,0.3673,0.3667,0.3651,0.362,0.3613,0.3604,0.3612,0.3541,0.354,0.3539,0.3549,0.3549,0.3549,0,0,0,0,0,0.383,0.3812,0.3808,0.38,0.3756,0.3727,0.3721,0.3704,0.3705,0.3696,0.3677,0.3668,0.361,0.3617,0.3609,0.36,0.3541,0.354,0.3539,0.355,0.3549,0.3549,0,0,0,0,0,0,0.3841,0.3808,0.3803,0.3775,0.3754,0.3724,0.3711,0.3704,0.3681,0.3681,0.3659,0.3652,0.3625,0.3609,0.3618,0.3575,0.3575,0.3572,0.3586,0.3585,0.3585,0.3589,0.3609,0,0,0,0,0,0.384,0.3821,0.3792,0.3771,0.3761,0.3738,0.3725,0.3714,0.369,0.3681,0.366,0.3637,0.3614,0.3598,0.3575,0.3547,0.354,0.3537,0.3536,0.3536,0.3534,0.3519,0.3517,0.3535,0.3535,0.3535,0,0,0.3838,0.3818,0.3807,0.3773,0.3755,0.3735,0.3731,0.3708,0.3693,0.3677,0.365,0.3634,0.3607,0.3579,0.3565,0.3565,0.3527,0.3535,0.3535,0.3533,0.3517,0.3516,0.3514,0.3534,0.3534,0.3535,0,0,0.3825,0.3807,0.3788,0.3771,0.3745,0.3731,0.3726,0.3697,0.3687,0.3659,0.3647,0.3628,0.3588,0.3569,0.3555,0.3536,0.3527,0.3529,0.3526,0.3512,0.3511,0.3509,0.3503,0.3501,0.3527,0.3527,0.3527,0,0.3825,0.3795,0.3779,0.3758,0.3744,0.373,0.371,0.3694,0.3662,0.3652,0.3652,0.3602,0.3583,0.3551,0.3547,0.3535,0.3529,0.3532,0.3512,0.3511,0.3509,0.3503,0.3501,0.3527,0.3527,0.3527,0.3527,0,0.3797,0.3776,0.3764,0.3734,0.3718,0.3698,0.3678,0.3664,0.3655,0.364,0.3612,0.3589,0.3561,0.3553,0.3543,0.352,0.352,0.3517,0.3517,0.3508,0.3502,0.3499,0.3528,0.3528,0.3528,0.3528,0,0,0.3788,0.3751,0.3747,0.3734,0.3705,0.3688,0.3668,0.3642,0.3631,0.3609,0.3591,0.3558,0.3555,0.3538,0.3526,0.3513,0.3501,0.3511,0.351,0.351,0.3475,0.3478,0.3475,0.3496,0.3495,0.3495,0.3477,0,0.3771,0.3734,0.372,0.369,0.3671,0.3659,0.364,0.3621,0.3607,0.3587,0.3571,0.3549,0.3546,0.3536,0.3523,0.3505,0.3494,0.3506,0.3478,0.3477,0.3485,0.3472,0.3475,0.3459,0.3475,0.3474,0.3474,0,0.3745,0.3725,0.3694,0.3669,0.366,0.3645,0.3621,0.3603,0.358,0.3571,0.3553,0.3542,0.352,0.3522,0.349,0.35,0.3487,0.3477,0.3476,0.3472,0.3475,0.3468,0.3454,0.3452,0.347,0.347,0.347,0,0.3742,0.3707,0.3684,0.3674,0.3644,0.3633,0.362,0.3598,0.3584,0.3562,0.3553,0.3529,0.3516,0.3497,0.348,0.3483,0.345,0.3451,0.3442,0.3442,0.3435,0.3435,0.3418,0.3427,0.3427,0.3427,0.3427,0,0.3724,0.3706,0.3683,0.3669,0.3648,0.3631,0.361,0.3596,0.3577,0.3559,0.3547,0.3531,0.3509,0.349,0.3476,0.3452,0.3446,0.3438,0.3434,0.3439,0.344,0.343,0.3431,0.3426,0.3427,0.3427,0.3427,0,0.3717,0.3701,0.3675,0.365,0.3643,0.3629,0.3606,0.3592,0.3578,0.3556,0.355,0.3528,0.3504,0.3486,0.3455,0.3446,0.3421,0.3417,0.3429,0.3427,0.3419,0.342,0.3395,0.3391,0.3403,0.3403,0.3402,0,0.3707,0.3692,0.3666,0.3654,0.3642,0.3623,0.3609,0.3592,0.3578,0.3553,0.3541,0.3518,0.3498,0.3462,0.3442,0.3419,0.3414,0.3407,0.341,0.3416,0.3414,0.3415,0.3414,0.3406,0.3406,0.3406,0.3406,0,0.369,0.3684,0.3665,0.3644,0.3628,0.361,0.3592,0.3583,0.3563,0.3548,0.3525,0.351,0.348,0.3456,0.3431,0.3417,0.3408,0.3406,0.3402,0.3406,0.3414,0.341,0.3428,0.3406,0.3406,0.3406,0.3406,0.3406,0.3681,0.3668,0.3648,0.3628,0.3613,0.3597,0.3583,0.3568,0.3549,0.3524,0.3515,0.3492,0.347,0.3436,0.3421,0.3403,0.3402,0.3397,0.3395,0.3394,0.3395,0.3418,0.3398,0.3398,0.3398,0.3398,0.3398,0,0.3664,0.3651,0.3633,0.3609,0.3593,0.3588,0.3568,0.3555,0.3535,0.3516,0.3498,0.3472,0.345,0.3429,0.3406,0.3395,0.339,0.3389,0.339,0.3387,0.3397,0.3403,0.3393,0.3393,0.3393,0.3393,0.3393,0.3393,0.3654,0.3632,0.3623,0.3594,0.3581,0.3559,0.3548,0.3533,0.3518,0.349,0.3472,0.346,0.344,0.3416,0.3395,0.339,0.3382,0.3382,0.3375,0.3385,0.3386,0.3386,0.3391,0.338,0.338,0.3366,0.3366,0.3366]}]]